Tracking 32412 objects as of 7-Dec-2025
HD Live streaming from Space Station
objects crossing your sky now

STARLINK-1225

Track STARLINK-1225 now!
10-day predictions
STARLINK-1225 is classified as:


NORAD ID: 45187
Int'l Code: 2020-012K
Perigee: 553.6 km
Apogee: 555.2 km
Inclination: 53.1 °
Period: 95.6 minutes
Semi major axis: 6925 km
RCS: Unknown
Launch date: February 17, 2020
Source: United States (US)
Launch site: AIR FORCE EASTERN TEST RANGE (AFETR)
Your satellite tracking list
Your tracking list is empty




NASA's NSSDC Master Catalog

Two Line Element Set (TLE):
1 45187U 20012K   25340.63314505 -.00001871  00000-0 -10679-3 0  9996
2 45187  53.0551 104.3646 0001140  88.4574 271.6546 15.06378523320806
Source of the keplerian elements: AFSPC